Regional Weather Roundup
Issued by NWS Kansas City/Pleasant Hill, MO

Home | Current Version | Previous Version | Graphics & Text | Print | Product List | Glossary Off
Versions: 1 2 3 4 5 6 7 8 9 10 11 12 13 14 15 16 17 18 19 20 21 22 23 24 25 26 27 28 29 30 31 32 33 34 35 36 37 38 39 40 41 42 43 44 45 46 47 48 49 50

000
ASUS43 KEAX 202011
RWREAX

WEATHER ROUNDUP FOR EASTERN KANSAS AND NORTHWEST MISSOURI
NATIONAL WEATHER SERVICE KANSAS CITY/PLEASANT HILL MO
300 PM CDT WED AUG 20 2014

KSZ040-057-103>105-MOZ028-029-037-043-202100-
...KANSAS CITY METROPOLITAN AREA...

CITY           SKY/WX    TMP DP  RH WIND       PRES   REMARKS
K.C. INTL      PTSUNNY   89  71  55 S12       29.87F HX  95
K.C. DOWNTOWN  PTSUNNY   92  69  47 S10G21    29.86F HX  97
LEES SUMMIT    MOSUNNY   91  69  48 S13G20    29.89F HX  96
OLATHE - IXD   MOSUNNY   94  67  41 S21G26    29.88F HX  97
OLATHE - OJC   PTSUNNY   90  69  50 S10       29.88F HX  94
LAWRENCE       PTSUNNY   95  68  41 S10       29.85F HX  99

$$

MOZ001>008-011>017-020>025-030>033-038>040-044>046-053-054-202100-
...NORTHERN AND CENTRAL MISSOURI...

CITY           SKY/WX    TMP DP  RH WIND       PRES   REMARKS
ST. JOSEPH     MOSUNNY   89  74  60 S10       29.85F HX  98
MOSBY          MOCLDY    90  70  51 S6        29.87F HX  95
WHITEMAN AFB   MOSUNNY   91  65  42 SW15      29.90F HX  93
CLINTON        SUNNY     93  73  52 SW12      29.91F HX 102
SEDALIA        PTSUNNY   91  72  53 S9        29.93F HX  98
WARSAW         NOT AVBL
MARSHALL       SUNNY     91  75  59 S7        29.93S HAZE    HX 102
CHILLICOTHE      N/A     88  75  65 VRB7      29.90F HX  97
MOBERLY        MOSUNNY   88  72  58 SE5       29.94F HX  94
KIRKSVILLE     MOSUNNY   85  73  67 SE12      29.94F HX  91

$$

MOZ041-047>049-056>058-063>065-088>090-097-202100-
...EASTERN AND SOUTHERN MISSOURI...

CITY           SKY/WX    TMP DP  RH WIND       PRES   REMARKS
ST. LOUIS INTL CLOUDY    86  72  62 SE15      29.96F HX  92
SPIRIT OF STL  CLOUDY    88  73  61 CALM      29.94F HX  95
COLUMBIA       MOSUNNY   91  73  55 SW6       29.94F HX  99
JEFFERSON CITY MOSUNNY   91  70  49 SE7       29.93F HX  96
MEXICO         MOSUNNY   90  79  70 S7        29.94F HX 105
HANNIBAL       CLOUDY    88  72  58 S6        29.93F HX  94
ROLLA          MOSUNNY   91  69  48 VRB5      29.96F HX  96
LEBANON        SUNNY     93  61  33 SW12G18   29.97F HX  93
OSAGE BEACH    MOSUNNY   93  68  43 SW6       29.93F HX  97
SPRINGFIELD    PTSUNNY   94  65  38 SW17      29.96F HX  96
BRANSON        PTSUNNY   97  64  34 SW10G17   30.00F HX  99
NEVADA         MOSUNNY   91  70  49 S14G21    29.92F HX  97
JOPLIN         MOSUNNY   91  66  43 S17       29.95F HX  93
WEST PLAINS    SUNNY     93  68  43 SW8       30.01F HX  97

$$

IAZ060-094-KSZ022-034>040-054-083-096-NEZ052-066-093-202100-
...KANSAS...SOUTHEAST NEBRASKA AND IOWA...

CITY           SKY/WX    TMP DP  RH WIND       PRES   REMARKS
TOPEKA         MOSUNNY   95  69  42 S17       29.84F HX 100
MANHATTAN      MOSUNNY   97  69  40 S14G24    29.80F HX 103
EMPORIA        MOSUNNY   93  68  43 S21G28    29.85F HX  97
CHANUTE        SUNNY     93  70  46 S21G28    29.89F HX  99
WICHITA        MOSUNNY   96  68  39 S20G29    29.82F HX 101
OMAHA          PTSUNNY   89  72  56 S18       29.80F HX  96
LINCOLN        SUNNY     94  67  41 S20       29.78F HX  97
FALLS CITY     MOSUNNY   93  72  50 S15G23    29.82F HX 101
LAMONI         MOSUNNY   84  72  67 S10G17    29.89F
DES MOINES     CLOUDY    81  69  67 S10       29.86F

$$




USA.gov is the U.S. government's official web portal to all federal, state and local government web resources and services.